Temp
23 23 24 24 26 26 26 26 25 25 24 24 24 23 23 23 23 22 21 20 21 21 21 21 21 21 21 21 21 21 21 21 21 21 20 20 20 20 20 20 20 20 20 20 20 20 20 20 20 20 20 20 21 21 21 21 21 21 21 21 21 21 21
22 23 23 23 25 26 26 26 25 25 24 24 24 24 23 23 23 22 21 20 20 21 21 21 21 21 21 21 21 21 21 21 21 21 21 20 20 20 20 20 20 20 20 20 21 20 20 20 20 20 20 20 20 21 21 21 21 21 21 21 21 21 21
22 23 23 23 24 25 25 25 25 25 24 24 24 24 23 23 23 22 22 21 20 21 21 21 21 21 21 21 21 21 21 21 21 21 21 21 21 20 20 20 20 20 20 20 20 21 21 20 20 20 20 20 20 21 21 21 21 21 21 21 21 21 21
22 23 23 23 24 24 24 25 25 25 24 24 24 24 24 23 23 22 22 21 21 21 21 21 21 21 21 21 21 21 21 21 21 21 21 21 21 20 20 20 20 20 20 20 20 21 21 21 20 20 20 20 20 20 20 21 21 21 21 21 21 21 21
22 23 23 23 23 23 24 25 25 25 25 24 24 24 24 23 23 23 22 21 21 21 21 21 21 20 20 21 21 21 21 21 21 21 20 20 20 20 20 20 20 20 20 20 20 21 21 21 21 20 20 21 21 20 20 20 21 21 21 21 21 21 21
22 22 23 23 23 23 23 24 25 25 25 24 24 24 24 23 23 22 22 21 21 21 21 21 21 20 20 20 20 20 20 21 21 21 20 20 20 20 20 20 20 20 20 20 21 21 21 21 21 21 20 20 21 20 20 20 20 20 20 20 21 21 21
21 22 22 22 22 22 23 23 24 25 25 25 24 23 24 23 23 23 22 22 21 21 21 21 21 21 21 20 20 20 20 20 21 20 20 20 21 21 21 21 21 21 21 21 21 21 21 21 21 21 21 20 20 20 20 20 20 20 20 20 20 21 21
20 21 21 22 22 22 23 24 24 24 25 25 23 23 23 23 23 23 23 22 22 22 22 22 22 22 21 21 21 21 21 21 20 20 20 21 21 21 21 21 21 21 21 21 21 21 21 21 20 20 20 20 20 20 21 21 21 20 20 20 20 20 20
19 20 21 21 21 22 23 23 23 22 23 24 24 23 23 23 23 23 23 23 22 22 22 22 22 22 22 21 21 21 21 21 21 21 21 21 21 21 21 21 21 21 21 21 21 21 21 21 21 21 21 21 21 21 21 21 21 20 20 20 20 20 20
19 19 20 20 20 21 22 22 22 21 20 21 23 23 23 23 23 23 23 23 22 22 22 22 22 22 22 22 22 22 22 22 22 21 21 21 21 22 22 22 22 22 21 21 21 21 21 21 21 21 21 21 21 21 20 20 20 20 20 20 20 20 20
20 19 19 20 20 20 20 21 22 22 21 20 20 22 23 23 23 23 23 23 22 22 22 22 22 22 22 22 22 22 22 22 22 22 22 22 22 22 22 22 22 22 22 21 21 21 21 21 21 21 21 21 21 21 20 20 20 20 20 20 20 20 20
19 19 19 19 19 20 20 20 20 21 21 20 20 20 22 23 23 23 23 22 22 22 22 22 22 22 22 22 22 22 22 22 22 22 22 22 22 22 22 22 22 22 22 22 21 21 21 21 21 21 21 21 21 21 21 20 20 20 20 20 20 20 20
19 19 19 19 19 20 20 19 20 20 20 20 20 20 21 22 23 22 22 22 21 22 22 22 22 22 22 22 22 22 22 22 22 22 22 22 22 22 22 22 22 22 22 22 21 21 21 21 21 21 20 20 20 20 20 20 20 20 20 20 20 20 20
18 18 18 18 19 19 19 18 19 20 19 19 20 20 20 21 21 21 21 21 20 20 21 22 22 22 22 22 21 21 22 21 21 22 22 22 22 22 22 22 22 22 22 22 21 21 21 21 21 21 20 20 20 19 20 20 20 20 20 20 20 20 20
17 17 17 17 17 17 18 17 17 18 18 18 19 19 19 19 19 19 19 20 20 19 20 20 21 21 21 21 21 21 21 21 21 21 21 22 22 22 22 22 22 22 22 22 21 21 21 21 21 21 21 21 20 19 19 19 20 20 20 20 20 20 20
16 16 16 16 16 17 17 17 17 17 17 18 19 19 19 19 20 19 19 20 20 20 20 20 20 20 20 21 21 21 21 21 21 21 21 21 22 22 22 22 22 22 22 22 21 21 21 21 21 21 21 21 20 20 19 20 20 20 20 20 20 20 20
15 15 16 16 16 16 17 17 17 17 18 18 19 19 19 20 20 20 19 20 20 20 20 21 20 20 20 21 21 21 20 20 20 20 20 20 21 21 21 21 21 21 22 22 21 21 21 21 21 21 20 20 21 21 20 20 20 20 20 20 20 20 20
15 15 15 15 16 16 16 16 17 17 18 18 18 18 18 19 19 19 19 19 20 20 20 20 20 20 20 20 20 20 20 19 19 20 19 20 20 20 20 20 21 21 21 21 21 21 21 21 21 21 21 20 21 21 20 21 21 20 20 20 20 20 20
15 15 15 16 17 16 15 16 16 17 17 17 17 17 18 18 19 18 18 18 19 19 19 20 20 20 19 20 19 20 19 19 19 20 20 20 20 20 20 20 20 20 20 20 20 21 21 21 21 21 20 20 20 20 20 20 21 20 20 20 20 20 20
15 15 15 16 17 17 16 15 16 16 17 17 17 17 17 18 18 18 19 19 19 19 19 19 20 20 19 19 19 19 19 19 20 20 20 20 20 20 20 20 20 20 20 20 20 20 20 21 20 20 20 20 20 20 20 20 20 20 20 20 20 20 20
15 15 16 16 16 16 15 15 15 16 16 16 16 16 17 17 18 18 18 18 18 18 18 18 19 19 19 19 18 19 19 19 19 19 19 19 19 19 19 19 19 20 20 20 20 20 20 20 20 20 20 20 20 20 20 20 20 21 21 21 21 20 20
15 15 16 16 16 16 15 15 15 15 15 16 16 16 16 17 17 17 18 18 18 18 18 18 18 18 18 18 18 18 18 18 18 18 18 18 18 18 18 18 19 19 19 20 20 20 20 20 20 20 20 20 20 19 19 20 20 20 21 21 21 20 20
15 15 16 16 16 16 15 15 15 15 15 15 15 16 16 16 17 17 17 17 17 17 17 17 17 18 18 18 18 18 18 18 18 18 18 18 18 18 18 18 18 18 19 19 19 20 20 20 19 19 19 19 19 19 19 19 20 20 20 21 20 20 19
15 15 15 16 15 15 15 15 15 15 14 15 15 15 15 16 16 17 17 17 17 17 17 17 17 17 17 17 17 17 18 18 18 17 18 18 18 18 18 18 18 18 18 18 18 19 19 19 19 18 19 19 18 18 19 19 19 19 20 20 20 20 19
16 15 15 16 15 15 15 15 14 14 14 14 14 14 15 15 16 16 16 16 16 16 17 17 17 17 17 17 17 17 17 17 17 17 17 17 17 17 17 17 17 17 17 17 18 18 18 18 18 18 18 18 18 18 19 19 19 19 19 19 19 19 19
16 16 15 15 15 15 15 15 14 14 14 14 14 14 15 15 16 16 16 16 16 16 17 16 16 16 16 17 17 17 17 17 17 17 17 17 17 17 17 17 17 17 17 17 17 17 17 17 17 17 17 17 18 18 18 18 18 18 19 19 19 19 19
16 16 16 16 16 16 15 15 15 15 15 14 14 14 15 15 16 15 15 16 16 16 16 16 16 16 15 15 16 16 16 16 16 16 16 16 16 17 17 17 17 17 17 17 17 17 17 17 17 17 17 17 17 18 18 18 18 18 18 18 18 18 18
17 17 17 16 16 16 15 15 16 15 15 14 14 15 15 15 15 15 15 15 15 14 14 15 15 15 15 15 15 15 15 15 15 16 16 16 16 16 16 16 16 16 16 16 16 17 17 17 17 17 17 17 17 17 17 17 17 17 18 18 18 17 18
17 17 17 17 17 16 16 16 16 15 15 14 14 15 15 15 15 14 14 14 14 14 14 14 14 14 15 15 15 15 15 15 15 16 15 15 15 15 15 15 15 15 15 15 16 16 16 16 16 16 16 16 16 16 16 16 16 17 17 17 17 17 17
18 18 18 17 17 17 17 16 15 15 15 15 14 14 15 15 15 14 14 14 14 14 14 14 14 14 14 14 15 15 15 15 15 15 15 15 15 15 15 15 15 15 15 15 15 15 15 15 15 15 15 15 16 16 16 16 16 16 16 16 16 16 16
18 18 18 18 17 17 17 17 16 16 16 16 15 15 14 15 15 14 14 14 14 15 15 15 14 14 14 14 14 14 14 15 15 15 14 14 15 15 15 14 15 15 15 15 15 15 15 15 14 14 14 15 15 15 15 15 15 15 16 15 15 15 15
18 18 18 18 18 17 17 17 17 17 16 16 16 15 15 15 14 14 14 14 14 14 15 15 15 15 15 15 14 14 14 15 15 15 15 14 14 15 14 14 15 15 14 14 14 14 14 14 14 14 14 14 15 15 15 15 15 15 15 14 14 14 14
17 18 18 17 17 17 17 17 17 17 16 16 16 16 15 15 15 14 14 14 14 14 15 15 16 16 15 15 15 15 15 15 15 15 15 15 15 15 15 15 15 15 15 15 14 14 13 13 14 14 14 14 14 14 14 14 14 14 14 14 14 14 14
16 16 16 16 16 16 16 16 15 15 15 15 15 15 15 15 15 14 14 14 14 14 15 15 15 15 15 15 15 15 15 15 15 15 15 15 15 15 15 15 15 15 15 15 15 15 14 13 14 14 14 14 14 14 14 14 14 14 14 14 14 14 14
15 15 15 15 15 15 15 15 15 15 15 15 15 15 15 15 15 14 14 14 14 14 15 15 16 16 15 15 15 14 14 14 14 15 14 14 15 15 15 15 15 15 15 15 15 15 15 15 15 15 14 14 14 14 14 14 14 14 15 14 15 15 15
15 15 15 15 14 14 14 14 14 14 14 14 15 14 14 14 14 14 14 14 14 15 15 15 15 15 15 15 15 14 14 13 14 14 14 14 15 15 15 15 15 15 15 15 15 15 15 15 15 15 15 15 15 15 15 15 15 15 15 15 15 15 15
14 14 14 14 14 14 14 14 14 14 14 14 14 14 14 14 14 14 14 14 14 15 15 15 15 15 14 14 14 14 14 13 14 14 14 14 14 14 14 14 14 14 14 14 14 15 15 15 15 15 15 15 15 15 15 15 15 15 15 15 15 14 14
14 14 14 14 14 14 14 14 14 14 14 14 14 14 14 14 14 14 14 14 14 14 14 15 15 14 14 14 14 13 13 13 13 13 13 13 14 14 13 14 14 14 14 14 14 14 14 14 14 15 15 15 15 15 15 15 15 15 15 15 14 14 13
Height
1502 1503 1503 1504 1505 1505 1507 1509 1511 1513 1515 1518 1519 1520 1523 1525 1526 1527 1528 1529 1530 1532 1533 1535 1537 1538 1539 1541 1543 1544 1545 1547 1548 1549 1550 1552 1553 1555 1556 1557 1558 1560 1561 1562 1563 1564 1565 1566 1567 1569 1569 1569 1570 1571 1572 1573 1574 1575 1575 1576 1577 1577 1578
1499 1501 1502 1504 1504 1504 1506 1508 1510 1513 1514 1516 1518 1519 1521 1523 1524 1526 1527 1528 1529 1531 1532 1534 1536 1537 1538 1540 1541 1543 1544 1546 1547 1548 1549 1551 1552 1554 1555 1557 1558 1559 1560 1561 1562 1563 1564 1565 1566 1567 1568 1568 1569 1570 1571 1572 1572 1573 1574 1575 1575 1576 1577
1497 1499 1499 1502 1504 1505 1506 1507 1509 1512 1513 1515 1516 1518 1520 1521 1523 1525 1526 1527 1528 1530 1531 1533 1534 1536 1538 1539 1540 1542 1543 1545 1546 1547 1549 1550 1551 1553 1554 1556 1557 1558 1559 1560 1561 1563 1563 1564 1565 1565 1567 1567 1568 1568 1569 1570 1571 1572 1573 1573 1574 1575 1575
1494 1496 1498 1499 1501 1504 1506 1507 1508 1510 1512 1514 1515 1517 1518 1519 1522 1524 1524 1526 1527 1528 1530 1531 1533 1535 1536 1538 1539 1540 1542 1543 1545 1546 1548 1549 1551 1552 1553 1555 1556 1557 1558 1559 1560 1561 1562 1563 1564 1564 1565 1566 1567 1567 1568 1569 1569 1570 1571 1572 1573 1574 1574
1492 1494 1496 1498 1499 1501 1504 1505 1508 1509 1511 1513 1515 1516 1517 1518 1520 1523 1524 1525 1526 1527 1528 1530 1532 1534 1535 1537 1538 1539 1540 1542 1544 1545 1547 1549 1550 1551 1552 1553 1554 1555 1557 1558 1559 1560 1561 1562 1563 1563 1563 1564 1565 1566 1567 1568 1568 1569 1570 1570 1571 1572 1573
1492 1493 1495 1497 1498 1500 1503 1506 1508 1509 1510 1512 1513 1515 1516 1517 1519 1521 1523 1524 1525 1526 1527 1529 1531 1532 1534 1535 1537 1539 1540 1541 1542 1544 1546 1548 1549 1550 1552 1553 1554 1555 1556 1557 1558 1559 1559 1560 1561 1562 1562 1563 1564 1565 1566 1566 1567 1568 1569 1569 1570 1571 1572
1492 1492 1494 1496 1499 1500 1503 1505 1507 1508 1510 1510 1512 1514 1515 1516 1518 1520 1521 1523 1524 1525 1526 1528 1529 1530 1532 1534 1536 1537 1539 1540 1541 1543 1545 1546 1548 1549 1550 1551 1552 1554 1555 1556 1556 1557 1558 1559 1559 1561 1561 1562 1562 1563 1564 1565 1566 1567 1567 1568 1568 1569 1570
1491 1491 1494 1495 1497 1499 1500 1502 1503 1506 1509 1510 1511 1513 1514 1515 1517 1519 1520 1521 1523 1524 1525 1526 1527 1529 1530 1532 1534 1536 1538 1539 1540 1542 1543 1545 1547 1548 1549 1550 1551 1552 1553 1554 1555 1556 1557 1557 1558 1559 1560 1561 1561 1562 1563 1564 1565 1565 1566 1567 1567 1568 1569
1491 1491 1493 1494 1494 1496 1498 1500 1503 1506 1508 1509 1510 1511 1512 1513 1515 1517 1519 1520 1521 1522 1524 1525 1526 1528 1529 1531 1533 1535 1537 1538 1540 1541 1542 1544 1546 1547 1548 1549 1550 1551 1552 1553 1554 1555 1555 1556 1557 1557 1558 1559 1560 1560 1561 1562 1563 1564 1564 1565 1566 1567 1568
1491 1491 1492 1492 1494 1495 1496 1499 1502 1506 1507 1507 1508 1509 1511 1513 1514 1516 1518 1519 1520 1521 1522 1524 1525 1526 1528 1530 1532 1534 1536 1537 1539 1540 1541 1543 1544 1546 1547 1548 1549 1550 1551 1552 1553 1554 1554 1555 1555 1556 1557 1557 1558 1559 1559 1560 1561 1562 1563 1564 1565 1565 1566
1491 1492 1492 1492 1494 1496 1496 1497 1499 1502 1505 1507 1507 1508 1510 1512 1514 1515 1517 1518 1519 1520 1521 1522 1523 1525 1527 1529 1531 1532 1534 1536 1537 1539 1540 1541 1543 1544 1546 1547 1548 1549 1550 1551 1551 1552 1553 1554 1555 1555 1556 1556 1556 1557 1558 1558 1559 1560 1561 1562 1563 1564 1565
1492 1492 1492 1493 1494 1495 1497 1497 1498 1500 1504 1507 1509 1509 1510 1510 1512 1514 1516 1516 1517 1519 1521 1521 1522 1524 1525 1527 1528 1530 1532 1534 1536 1537 1538 1539 1540 1542 1544 1545 1546 1548 1548 1549 1549 1550 1551 1552 1553 1554 1554 1555 1555 1555 1556 1557 1558 1559 1559 1560 1561 1562 1563
1494 1491 1491 1491 1492 1494 1495 1497 1498 1499 1502 1505 1507 1510 1510 1509 1510 1513 1515 1516 1517 1518 1519 1520 1521 1523 1524 1525 1527 1529 1530 1532 1534 1535 1536 1537 1538 1540 1541 1543 1544 1545 1546 1546 1546 1547 1548 1549 1550 1551 1552 1553 1554 1554 1554 1555 1556 1557 1558 1559 1560 1560 1561
1496 1494 1492 1490 1492 1494 1495 1496 1497 1498 1500 1502 1505 1510 1512 1509 1510 1513 1515 1517 1518 1517 1517 1518 1519 1521 1522 1524 1526 1528 1529 1530 1532 1533 1534 1535 1536 1538 1540 1541 1542 1543 1543 1544 1544 1545 1546 1546 1547 1547 1549 1550 1552 1552 1553 1553 1554 1555 1556 1557 1558 1559 1559
1498 1496 1494 1492 1493 1495 1496 1498 1498 1496 1498 1501 1503 1508 1511 1509 1511 1514 1516 1516 1517 1515 1514 1515 1517 1519 1522 1524 1525 1527 1528 1530 1531 1532 1532 1533 1535 1536 1538 1539 1540 1541 1541 1542 1543 1544 1545 1546 1546 1547 1547 1548 1549 1550 1550 1551 1552 1553 1554 1555 1556 1557 1557
1500 1498 1496 1494 1494 1496 1497 1499 1498 1496 1497 1500 1502 1506 1510 1512 1514 1516 1515 1513 1513 1513 1512 1514 1517 1519 1522 1523 1524 1526 1527 1528 1530 1531 1531 1532 1533 1534 1535 1536 1538 1538 1539 1540 1541 1542 1543 1544 1545 1546 1546 1546 1546 1547 1548 1549 1550 1552 1553 1554 1555 1555 1556
1502 1500 1498 1495 1494 1497 1498 1498 1498 1498 1499 1501 1503 1506 1510 1514 1515 1515 1514 1512 1512 1513 1514 1515 1518 1521 1523 1523 1524 1525 1525 1526 1528 1530 1530 1531 1532 1533 1533 1534 1535 1536 1537 1538 1539 1540 1541 1542 1543 1545 1544 1544 1544 1544 1546 1547 1549 1550 1551 1552 1553 1553 1553
1504 1502 1499 1495 1494 1497 1499 1499 1499 1500 1502 1504 1506 1508 1512 1513 1513 1513 1513 1512 1512 1514 1515 1517 1519 1521 1523 1523 1523 1523 1524 1525 1527 1530 1531 1531 1531 1531 1532 1533 1533 1534 1535 1536 1537 1538 1539 1540 1541 1543 1543 1543 1543 1543 1544 1545 1546 1547 1549 1550 1551 1552 1552
1505 1503 1500 1495 1492 1497 1501 1500 1499 1502 1503 1505 1507 1509 1511 1511 1512 1512 1513 1514 1515 1516 1517 1517 1518 1520 1521 1521 1522 1522 1522 1524 1528 1531 1531 1530 1529 1529 1530 1531 1531 1532 1533 1533 1535 1536 1537 1538 1539 1540 1541 1542 1542 1542 1543 1544 1545 1545 1547 1549 1549 1550 1550
1506 1502 1500 1495 1492 1498 1503 1501 1501 1503 1504 1506 1508 1508 1509 1510 1511 1512 1513 1515 1516 1517 1517 1517 1517 1518 1519 1519 1520 1521 1522 1524 1527 1528 1528 1527 1528 1527 1527 1528 1529 1530 1530 1531 1532 1533 1534 1536 1537 1538 1540 1541 1541 1542 1543 1543 1544 1544 1545 1546 1547 1548 1548
1506 1500 1497 1495 1496 1501 1504 1502 1503 1504 1504 1505 1507 1507 1508 1509 1509 1510 1511 1513 1514 1515 1515 1516 1516 1517 1517 1517 1519 1521 1522 1524 1525 1525 1525 1525 1526 1525 1525 1526 1527 1528 1529 1529 1530 1530 1531 1533 1535 1536 1537 1539 1540 1541 1542 1542 1543 1542 1542 1543 1545 1546 1546
1506 1501 1497 1497 1499 1502 1503 1503 1503 1504 1504 1505 1505 1506 1506 1506 1507 1507 1508 1509 1510 1511 1512 1513 1514 1514 1514 1515 1517 1518 1520 1521 1521 1522 1522 1523 1523 1523 1523 1524 1525 1526 1526 1526 1527 1527 1528 1530 1532 1533 1534 1536 1538 1538 1540 1541 1541 1540 1540 1541 1542 1543 1545
1508 1505 1502 1501 1502 1503 1505 1506 1505 1504 1505 1505 1505 1505 1504 1504 1505 1504 1505 1505 1506 1507 1508 1510 1511 1511 1512 1513 1514 1515 1516 1516 1517 1519 1520 1520 1521 1521 1521 1522 1522 1522 1521 1522 1523 1524 1526 1527 1528 1529 1531 1533 1535 1536 1537 1539 1539 1539 1539 1539 1540 1541 1543
1511 1510 1507 1505 1506 1506 1507 1508 1506 1505 1505 1505 1506 1505 1503 1503 1503 1503 1503 1504 1504 1506 1508 1509 1509 1510 1510 1511 1512 1513 1513 1513 1515 1517 1518 1518 1518 1518 1519 1519 1519 1519 1519 1519 1520 1522 1523 1525 1525 1527 1529 1531 1532 1533 1535 1537 1537 1537 1537 1538 1539 1540 1541
1512 1512 1511 1509 1508 1509 1509 1508 1507 1507 1507 1507 1507 1506 1504 1504 1503 1503 1504 1504 1505 1506 1507 1508 1509 1509 1509 1509 1510 1510 1511 1513 1514 1516 1516 1516 1515 1515 1515 1515 1516 1516 1517 1517 1519 1521 1522 1523 1524 1526 1528 1528 1529 1531 1534 1535 1536 1536 1536 1536 1537 1538 1539
1513 1514 1513 1511 1511 1511 1511 1510 1510 1510 1510 1510 1509 1508 1506 1505 1504 1504 1504 1505 1506 1506 1506 1507 1508 1508 1508 1508 1509 1509 1511 1512 1513 1514 1514 1514 1513 1513 1513 1513 1514 1515 1514 1514 1515 1518 1519 1520 1522 1525 1526 1527 1527 1530 1532 1533 1534 1535 1535 1535 1536 1536 1537
1515 1515 1514 1514 1513 1513 1513 1513 1514 1514 1513 1512 1511 1510 1509 1507 1506 1506 1506 1507 1506 1506 1507 1508 1508 1508 1509 1509 1509 1510 1510 1511 1512 1512 1513 1513 1512 1512 1511 1511 1512 1513 1513 1512 1513 1514 1517 1519 1521 1523 1524 1525 1526 1528 1530 1531 1532 1533 1533 1533 1533 1534 1535
1516 1516 1516 1516 1516 1516 1516 1516 1517 1517 1516 1515 1514 1513 1512 1510 1509 1509 1509 1509 1509 1509 1509 1509 1509 1510 1510 1510 1511 1511 1511 1511 1511 1511 1512 1512 1511 1511 1511 1511 1512 1512 1513 1513 1512 1513 1515 1517 1519 1522 1523 1523 1525 1526 1527 1528 1529 1530 1530 1531 1531 1532 1533
1517 1518 1518 1518 1519 1519 1519 1519 1519 1520 1519 1518 1517 1516 1515 1514 1513 1512 1512 1512 1512 1513 1512 1512 1512 1512 1512 1513 1513 1513 1513 1513 1513 1513 1513 1512 1512 1513 1513 1513 1514 1514 1514 1515 1515 1515 1515 1516 1518 1520 1522 1522 1524 1525 1526 1527 1528 1528 1528 1529 1529 1530 1530
1518 1519 1520 1520 1521 1521 1521 1521 1521 1521 1522 1521 1519 1519 1518 1517 1517 1516 1516 1516 1516 1516 1515 1514 1515 1515 1515 1515 1515 1514 1515 1515 1514 1515 1515 1514 1515 1515 1515 1516 1516 1516 1516 1517 1518 1518 1517 1518 1519 1520 1521 1522 1523 1524 1525 1526 1527 1527 1527 1528 1528 1528 1527
1520 1521 1521 1522 1522 1522 1523 1523 1522 1522 1522 1522 1521 1521 1521 1521 1521 1520 1520 1520 1519 1519 1518 1517 1517 1517 1517 1517 1517 1517 1517 1517 1517 1517 1517 1517 1518 1518 1518 1518 1518 1518 1518 1519 1519 1519 1519 1520 1521 1521 1522 1523 1524 1525 1525 1526 1527 1527 1527 1527 1528 1528 1527
1521 1522 1522 1523 1524 1524 1524 1524 1524 1524 1523 1523 1523 1524 1524 1524 1524 1523 1523 1523 1523 1522 1521 1521 1520 1520 1520 1520 1519 1520 1520 1520 1520 1520 1519 1520 1520 1520 1520 1521 1520 1520 1520 1520 1521 1521 1521 1522 1523 1523 1523 1524 1524 1525 1526 1526 1527 1527 1527 1527 1528 1528 1528
1523 1522 1523 1524 1524 1525 1525 1525 1526 1526 1525 1526 1526 1527 1527 1527 1527 1527 1527 1526 1525 1525 1524 1523 1523 1523 1523 1523 1523 1523 1523 1523 1523 1523 1523 1522 1522 1522 1523 1523 1523 1523 1522 1522 1522 1523 1523 1524 1524 1524 1524 1525 1525 1526 1526 1527 1527 1527 1527 1528 1528 1528 1528
1524 1524 1525 1525 1525 1526 1527 1527 1528 1528 1527 1528 1528 1529 1529 1530 1529 1529 1529 1528 1528 1527 1526 1526 1525 1525 1525 1526 1525 1525 1525 1525 1525 1525 1525 1525 1525 1525 1525 1525 1525 1525 1525 1525 1525 1524 1525 1525 1525 1525 1526 1526 1527 1527 1528 1528 1528 1528 1528 1529 1529 1529 1529
1525 1527 1527 1527 1527 1528 1528 1529 1529 1529 1529 1530 1530 1530 1531 1531 1531 1531 1530 1530 1529 1528 1528 1528 1528 1529 1529 1529 1529 1529 1529 1528 1528 1528 1528 1528 1528 1527 1527 1527 1527 1527 1527 1527 1527 1527 1527 1527 1527 1527 1528 1528 1529 1529 1529 1529 1529 1529 1529 1530 1530 1530 1530
1527 1528 1528 1528 1529 1529 1529 1530 1530 1530 1530 1531 1531 1532 1532 1532 1532 1532 1531 1531 1530 1529 1529 1530 1530 1531 1532 1532 1532 1532 1532 1531 1531 1530 1530 1530 1530 1530 1529 1529 1530 1530 1530 1529 1529 1529 1529 1529 1529 1529 1529 1529 1530 1530 1530 1530 1530 1530 1530 1531 1531 1531 1530
1529 1530 1530 1530 1530 1530 1531 1531 1531 1531 1531 1531 1532 1532 1533 1533 1533 1533 1532 1532 1531 1531 1532 1532 1532 1533 1533 1533 1534 1534 1534 1533 1533 1533 1533 1532 1532 1532 1532 1532 1532 1532 1532 1532 1531 1531 1531 1531 1530 1530 1530 1531 1531 1531 1531 1531 1531 1531 1531 1531 1532 1532 1532
1529 1529 1530 1531 1531 1532 1532 1532 1532 1532 1532 1532 1533 1533 1534 1534 1535 1534 1534 1533 1532 1533 1533 1534 1534 1535 1535 1535 1535 1536 1536 1536 1535 1535 1535 1534 1534 1534 1534 1534 1534 1534 1534 1534 1533 1533 1533 1533 1532 1532 1532 1532 1532 1532 1532 1532 1532 1532 1532 1532 1533 1533 1533
Wind_Speed
20 21 21 21 23 24 23 24 24 23 24 24 23 23 23 23 23 23 23 24 24 24 24 23 22 23 22 21 20 19 19 18 17 17 16 15 14 12 12 11 12 12 11 9 8 9 10 10 10 10 11 10 9 8 8 7 7 6 6 6 7 7 8
20 20 19 21 22 23 24 25 24 24 24 24 23 23 23 23 24 24 24 24 24 24 24 23 23 23 22 22 21 20 19 18 18 18 17 16 16 14 13 12 11 12 12 10 9 10 10 11 11 12 12 12 10 9 8 8 8 8 7 7 6 7 7
23 22 20 21 21 21 24 25 25 25 25 24 23 24 25 24 24 24 25 25 24 24 24 24 23 23 23 22 22 21 20 19 18 18 17 17 16 15 14 13 12 12 12 13 12 10 10 11 12 13 13 13 11 9 9 9 9 9 9 8 7 7 7
22 24 22 22 21 21 23 25 26 26 26 25 24 25 26 26 26 25 25 24 24 24 24 24 24 23 23 23 22 21 21 20 19 18 17 16 15 14 14 14 14 14 12 13 13 12 11 11 12 13 13 14 13 10 10 10 10 9 9 10 9 8 8
20 22 22 22 24 23 21 22 26 27 27 26 26 25 26 27 26 24 24 24 24 24 23 23 23 22 22 22 22 21 21 21 20 18 17 16 15 14 14 14 15 15 13 13 13 13 13 13 12 13 14 14 13 13 13 13 11 11 11 11 10 9 9
17 21 20 21 26 26 23 24 27 28 28 26 26 27 26 26 26 24 23 24 24 24 24 23 23 22 22 22 21 20 20 21 21 19 18 17 16 15 15 15 14 14 14 13 14 14 15 15 14 14 14 13 12 12 14 14 13 11 11 12 11 10 10
13 20 21 20 25 29 30 29 26 26 28 27 25 27 26 25 26 25 24 24 24 23 24 25 24 23 23 22 21 20 20 20 20 20 19 18 17 17 16 15 15 15 14 14 15 14 15 16 15 15 15 14 13 12 12 13 14 13 12 13 14 13 11
8 16 20 17 19 27 32 29 23 22 26 28 25 25 27 26 25 26 25 25 25 24 24 24 23 23 23 22 21 21 20 20 19 20 19 18 18 18 17 16 15 16 15 15 15 15 15 16 16 16 16 15 14 14 14 14 15 15 14 14 14 14 13
2 8 16 15 12 19 28 29 25 21 22 29 29 25 27 30 28 27 26 25 24 24 24 23 23 23 22 22 21 21 20 19 18 19 19 18 18 18 17 17 16 16 16 15 15 15 16 17 16 15 15 16 16 16 16 15 15 16 15 15 15 15 14
4 2 7 12 10 13 22 29 30 25 20 21 27 28 27 29 29 28 26 25 25 25 23 22 23 23 23 22 20 19 19 19 18 18 18 18 18 17 17 17 16 16 16 15 15 15 15 16 16 16 16 17 17 17 17 17 17 16 16 16 15 16 16
4 4 2 6 9 11 18 25 30 31 24 17 19 28 30 28 27 29 28 25 26 25 23 22 22 23 23 23 21 20 19 19 18 17 17 18 18 17 17 16 16 16 16 16 16 16 16 16 16 17 17 18 18 17 17 17 17 17 17 16 15 15 15
6 0 1 2 5 8 13 19 25 32 31 23 20 24 28 28 26 28 28 25 25 25 24 23 22 22 24 23 22 21 20 18 19 18 19 20 20 19 18 18 16 15 15 17 18 17 16 16 16 16 17 20 20 19 18 17 16 16 16 17 16 15 15
5 1 2 2 4 6 9 14 19 25 27 26 24 22 25 29 28 25 25 24 23 23 22 23 21 21 22 22 21 21 20 20 20 20 20 21 21 21 22 21 18 16 16 18 19 19 19 20 19 17 16 19 20 19 18 17 15 16 16 17 16 16 16
2 2 5 3 1 3 5 8 13 21 23 22 21 19 19 22 24 22 22 23 22 21 21 23 21 19 20 18 19 20 20 21 20 19 20 20 20 22 23 22 21 20 20 19 19 20 22 22 21 19 18 19 19 17 16 16 17 17 17 16 16 17 17
6 6 9 9 6 3 3 3 6 15 19 18 18 16 12 11 16 18 20 22 20 17 17 19 18 19 18 17 18 17 17 19 19 19 21 20 18 19 21 21 22 23 23 22 20 19 21 22 21 19 19 19 19 16 12 13 16 17 17 17 17 17 17
13 13 13 13 13 9 6 2 0 5 10 10 11 12 7 7 11 14 14 16 17 14 13 14 14 16 18 18 19 17 15 17 19 20 22 21 18 18 20 21 22 23 24 24 22 20 20 21 21 19 17 18 19 17 13 13 15 16 16 17 18 17 16
13 15 16 17 17 14 12 10 7 6 7 5 5 8 7 7 10 10 8 9 13 13 13 14 14 15 16 16 17 17 16 17 19 19 20 20 19 19 20 22 23 23 23 23 23 22 21 23 21 18 17 21 22 21 17 14 16 17 17 17 18 18 17
10 13 15 18 20 19 15 14 13 11 9 7 5 7 9 9 10 9 6 7 10 11 13 16 18 18 17 17 17 17 17 18 19 18 19 20 19 18 19 21 23 24 24 23 23 22 22 24 21 17 18 21 22 21 17 12 12 16 17 17 17 18 17
7 12 15 17 20 19 16 13 13 11 9 7 5 5 6 8 9 9 8 7 8 10 13 15 17 18 18 18 18 17 17 16 16 18 20 20 19 18 19 20 21 23 24 24 24 23 23 24 21 18 19 20 20 20 18 14 12 12 14 15 16 17 18
7 13 16 17 17 14 12 12 10 8 7 5 4 4 3 4 4 5 6 6 7 9 10 12 14 15 16 17 16 15 15 15 15 18 20 19 19 20 20 20 21 22 23 24 24 23 24 24 22 19 19 20 21 20 18 17 15 13 13 14 15 16 17
10 17 20 19 17 12 10 11 11 8 6 4 3 2 1 2 2 2 3 4 6 7 8 10 11 13 14 14 13 12 13 13 15 18 18 18 19 20 20 19 19 20 22 23 23 22 23 24 23 22 21 21 21 21 19 18 17 16 15 15 14 15 14
13 18 19 19 17 14 12 12 11 10 8 5 2 1 1 2 3 4 4 5 5 5 5 6 7 9 11 11 11 12 13 13 14 16 16 17 18 19 20 20 19 21 23 24 23 23 23 23 22 23 23 22 20 19 19 18 17 17 16 14 14 14 13
13 16 17 17 16 14 12 11 11 10 9 7 5 3 2 2 3 5 5 5 4 4 4 6 6 6 8 9 10 11 12 11 12 13 14 15 17 18 19 20 21 23 25 25 23 23 22 22 22 24 23 21 19 18 19 18 15 13 12 12 13 14 15
14 14 15 15 13 13 12 12 13 14 13 12 11 8 4 2 2 3 3 2 2 2 3 4 4 4 6 7 6 7 9 10 10 12 13 14 16 16 18 20 21 23 25 24 22 20 20 21 23 23 21 18 18 19 20 19 16 13 11 11 11 12 14
15 14 15 15 13 12 14 15 16 17 17 15 14 12 9 5 3 3 4 5 4 3 3 3 1 1 3 4 5 5 7 9 10 11 12 14 15 14 15 18 19 21 24 26 23 19 20 22 22 21 19 19 20 20 20 19 16 14 13 13 12 12 14
14 15 14 15 16 14 14 15 17 17 17 16 15 14 13 11 11 12 13 12 11 10 10 9 8 7 5 4 3 3 4 6 8 9 9 10 11 12 14 16 15 14 18 25 27 22 20 21 21 20 19 20 20 20 20 19 17 15 15 15 15 15 16
17 17 15 16 18 18 17 18 17 16 15 16 17 17 17 16 17 18 18 17 16 17 16 14 13 11 10 9 8 6 5 3 1 2 3 4 6 7 10 11 11 9 9 17 23 23 21 20 20 20 19 19 19 19 19 19 17 16 17 17 17 16 16
16 16 15 16 17 18 19 19 17 16 15 16 18 18 18 18 19 21 20 20 21 19 18 17 17 16 14 12 11 11 10 9 7 6 5 5 6 6 7 8 8 5 3 7 13 19 21 20 19 19 18 18 18 19 19 18 17 16 16 16 16 15 15
14 13 14 15 14 15 16 16 17 17 17 17 18 19 20 20 21 20 20 20 19 18 19 20 20 19 17 16 15 14 13 11 10 9 9 10 10 9 7 6 5 2 1 2 5 10 13 14 15 16 16 16 16 16 15 15 15 15 15 15 16 15 14
14 14 14 14 13 13 13 15 17 17 16 16 17 19 20 21 22 22 21 19 17 15 17 19 19 19 20 19 19 18 17 16 14 13 13 12 11 10 10 8 6 5 5 4 2 1 2 3 6 8 9 8 7 8 9 10 11 12 12 13 13 12 9
16 15 14 14 14 14 14 15 16 16 15 17 18 19 18 19 21 23 23 22 20 18 17 17 17 18 19 19 19 19 17 16 16 16 16 15 13 13 13 13 11 10 10 9 8 7 5 3 2 1 1 1 1 2 5 7 8 8 8 8 7 6 3
14 14 15 14 14 14 15 16 15 15 15 16 18 18 18 19 20 22 22 21 20 21 21 20 19 19 19 18 18 17 16 15 14 15 15 14 13 13 14 14 13 13 14 14 14 13 11 9 8 7 5 4 3 2 3 4 4 5 4 3 2 2 2
12 13 15 15 14 14 15 15 16 16 16 16 16 16 17 17 17 17 17 16 17 20 23 24 23 23 21 20 19 17 16 16 15 15 14 13 13 13 13 13 12 11 11 12 12 13 12 11 10 9 7 6 6 5 4 4 4 4 4 4 4 4 3
14 14 14 14 15 15 15 15 15 15 16 16 15 15 15 15 14 14 14 14 15 17 19 20 21 22 22 21 21 19 17 16 16 16 15 14 14 14 13 13 13 12 11 10 10 10 11 10 10 9 8 7 6 5 5 5 5 6 5 5 5 5 5
15 15 14 15 15 16 16 16 16 16 16 15 15 15 15 15 14 14 13 13 12 12 13 14 16 17 17 17 18 17 15 14 14 15 15 15 14 14 14 14 13 13 12 11 10 10 10 9 9 9 8 7 5 5 5 5 5 6 5 5 6 7 8
14 13 13 14 15 15 16 15 16 16 16 16 15 15 15 15 14 13 13 13 13 13 13 14 13 12 12 12 13 13 12 11 12 13 14 14 13 14 14 14 13 12 12 11 11 10 10 9 9 9 8 7 6 6 6 6 6 6 6 6 6 7 10
13 12 12 13 14 15 15 15 15 16 16 15 15 15 15 15 14 13 13 14 14 14 14 14 12 12 11 11 11 11 11 10 11 11 12 12 13 14 14 13 12 12 12 12 11 10 10 9 10 9 9 9 8 8 8 8 8 8 8 8 8 9 11
14 14 14 14 14 14 14 14 14 15 15 15 15 15 15 15 14 14 14 13 12 13 14 13 12 13 13 12 12 11 10 10 12 12 13 13 13 13 13 13 13 13 13 12 12 11 10 10 10 10 10 10 10 10 10 10 10 9 9 9 9 10 11
Wind_Direction
213 216 223 226 215 204 197 193 194 194 191 187 185 187 188 186 183 182 185 192 194 191 192 196 194 192 194 194 195 200 201 203 204 198 194 192 194 198 203 204 199 203 215 226 223 213 213 214 204 212 236 248 246 239 236 241 239 234 235 233 236 238 239
211 218 219 223 223 212 201 196 194 194 194 190 186 187 189 187 184 184 188 193 194 195 196 198 197 196 198 199 199 203 205 206 207 205 203 201 197 197 201 207 209 210 210 211 221 227 222 219 213 208 219 238 249 245 239 242 241 241 245 244 241 243 245
208 215 215 220 228 221 209 200 195 195 196 193 191 191 190 188 185 186 191 194 195 196 197 198 200 199 199 201 201 204 207 207 210 210 209 209 206 201 201 204 210 215 216 211 211 220 222 223 226 221 214 222 238 246 247 246 245 245 245 248 249 248 251
206 211 213 221 229 228 218 206 198 198 198 197 196 194 192 189 186 187 193 196 196 196 195 197 201 199 201 203 202 205 208 206 209 212 211 212 212 209 207 208 211 213 216 220 216 214 216 220 231 238 230 225 226 233 245 251 250 249 248 251 254 253 255
204 205 212 223 228 232 229 215 205 200 198 200 201 197 194 191 187 188 192 194 194 195 195 196 198 197 199 203 203 205 210 208 206 208 208 209 211 213 213 213 217 218 215 219 222 221 220 217 222 237 244 242 234 226 233 245 250 249 252 256 257 258 259
208 204 209 220 225 228 229 221 215 207 201 202 203 200 195 191 187 186 189 193 194 193 193 193 194 196 198 200 201 203 209 212 209 206 206 207 210 213 216 216 218 222 220 221 225 225 227 224 218 224 235 244 246 234 230 241 249 249 252 259 262 260 256
219 209 206 212 220 223 223 221 217 211 205 205 205 201 196 191 189 190 191 193 194 192 192 193 192 196 198 199 201 203 206 211 211 209 206 207 211 213 217 219 219 222 223 225 227 226 229 232 226 223 225 232 238 237 233 238 248 249 247 255 263 265 261
238 217 205 204 213 219 221 220 217 217 211 206 204 199 195 192 191 194 195 194 194 192 192 193 193 196 199 199 201 202 203 207 210 211 209 209 213 216 218 221 222 223 225 226 230 229 227 231 232 230 228 229 232 234 234 236 244 248 245 246 255 264 267
297 223 210 206 207 213 217 216 218 232 228 211 204 200 200 200 197 196 196 195 196 193 193 194 193 196 200 199 200 203 204 206 208 210 211 212 216 218 221 223 225 227 228 227 230 231 231 232 236 235 232 231 232 234 234 233 237 244 244 242 245 253 260
358 46 216 218 215 209 209 211 216 230 244 226 207 201 200 202 200 198 197 196 198 195 195 196 193 193 198 199 200 203 205 206 209 211 213 216 218 221 224 226 228 229 232 233 232 234 237 237 236 237 237 239 241 239 237 236 236 238 242 244 245 246 253
313 56 77 221 226 218 209 212 215 222 239 245 211 201 200 197 197 200 199 197 197 195 193 195 194 192 196 198 198 201 206 208 209 210 214 216 217 221 226 228 231 234 233 234 236 236 238 241 241 240 240 243 247 245 242 243 243 241 242 245 247 247 252
293 52 87 221 235 231 219 220 220 222 230 229 211 206 205 196 191 196 199 196 197 199 197 197 197 194 196 201 202 201 203 207 210 212 215 218 216 216 219 221 225 234 236 239 242 239 237 240 242 242 242 243 248 250 249 250 252 250 246 246 248 250 253
299 264 182 215 251 260 242 228 221 222 223 213 207 216 213 199 193 198 201 195 195 202 202 198 199 198 197 200 204 205 202 203 214 218 216 221 223 220 221 220 217 221 230 237 239 236 235 235 233 238 246 248 248 248 247 248 251 252 251 252 252 248 246
324 105 114 127 231 259 230 215 211 212 208 199 200 213 213 198 192 200 204 198 197 200 195 193 198 203 202 199 202 209 207 206 216 222 219 224 231 229 228 227 223 222 227 234 235 234 240 242 238 237 241 243 245 246 248 247 248 249 251 254 255 251 250
36 77 95 99 92 99 167 189 202 192 184 177 179 192 210 199 188 195 199 198 201 200 191 191 195 199 203 203 203 210 216 215 218 222 226 233 236 234 233 233 233 232 232 237 241 244 247 248 248 247 242 241 246 250 255 252 246 247 250 251 256 260 262
43 58 69 80 84 82 91 99 76 144 142 144 156 171 206 222 205 208 204 195 200 203 200 204 206 206 209 211 208 212 221 226 223 224 233 242 242 238 237 237 239 240 238 240 244 250 250 246 252 258 249 240 242 244 249 249 243 246 250 250 254 260 264
42 53 58 67 71 67 75 92 92 93 106 115 142 164 187 202 207 223 227 209 209 211 214 219 221 222 225 224 219 216 222 230 230 229 236 245 246 245 243 241 243 244 244 244 245 250 251 249 256 262 246 237 241 244 248 251 250 252 253 251 251 253 258
43 56 65 71 65 50 52 79 92 96 107 121 146 173 188 194 197 208 219 216 212 214 221 225 224 225 229 233 233 227 225 229 231 232 239 245 251 253 250 248 249 248 247 246 246 249 251 253 259 259 245 242 245 247 249 255 258 256 253 252 254 255 256
57 64 69 74 65 46 33 50 72 82 92 104 121 150 179 196 202 206 209 209 204 206 214 221 225 229 232 236 237 236 235 237 238 239 241 244 249 253 252 251 251 250 250 249 249 249 250 253 256 251 245 246 248 250 254 261 266 265 258 257 261 262 260
81 77 70 70 66 49 29 32 47 63 79 87 83 89 148 189 202 213 217 217 215 213 213 218 226 235 240 242 244 247 250 253 253 252 250 249 251 253 253 252 250 250 250 249 248 247 247 248 249 247 245 248 253 257 259 259 261 264 264 265 265 264 262
70 71 67 65 64 56 42 38 38 43 56 72 76 77 147 178 158 167 205 220 221 218 214 217 223 230 236 240 241 243 248 253 256 258 257 253 251 252 253 254 254 254 253 251 249 248 245 243 244 246 248 251 257 260 260 259 258 257 259 264 266 265 261
62 66 67 65 63 56 47 45 44 41 41 48 62 120 155 166 161 159 174 195 199 197 201 207 216 225 231 236 238 239 242 248 256 259 258 253 251 253 254 253 252 253 253 251 249 248 247 242 240 243 245 249 256 259 259 259 258 255 256 259 260 258 253
68 69 70 72 69 60 51 48 49 44 43 52 62 87 120 144 174 175 180 191 193 194 200 202 207 216 223 225 228 237 242 246 253 257 260 260 258 257 258 256 253 253 253 251 247 245 244 239 235 237 241 244 250 256 258 256 251 249 253 257 257 255 252
77 75 71 71 72 70 63 57 54 51 49 53 54 59 81 126 192 196 187 175 179 198 203 210 220 230 236 232 229 242 252 253 255 257 260 264 264 261 261 260 257 255 254 251 245 239 237 234 231 234 237 238 239 246 254 255 251 251 256 255 256 259 259
82 75 71 71 71 70 64 57 55 54 52 49 47 49 60 72 82 91 83 79 88 99 93 80 44 348 294 275 264 261 262 262 262 259 258 262 262 261 262 261 262 263 257 249 240 232 231 233 231 231 231 231 234 242 252 256 254 255 257 255 257 264 265
101 80 76 85 81 73 70 66 61 55 51 54 58 61 64 69 74 78 77 78 81 80 74 66 54 44 29 5 337 297 273 266 265 261 261 268 271 272 273 272 278 281 259 239 230 225 223 224 225 226 226 229 235 244 252 256 255 255 257 259 261 265 266
112 82 77 92 86 75 77 78 71 57 51 61 72 75 76 78 81 79 76 75 75 72 66 63 58 54 49 45 45 49 56 48 336 307 298 296 296 293 293 295 302 300 255 226 219 217 214 213 217 223 226 228 235 243 247 250 251 253 257 263 265 264 265
107 84 80 92 90 82 81 81 78 70 63 66 73 76 78 79 79 78 75 73 71 69 67 65 64 63 60 58 59 61 65 67 62 53 45 25 10 1 354 348 339 323 268 218 207 204 205 206 212 220 226 227 229 234 238 242 248 253 257 261 263 262 259
106 100 99 99 94 91 88 85 84 80 74 70 70 71 74 76 77 77 75 74 75 77 78 76 73 72 71 68 67 65 63 62 57 50 47 43 34 30 35 35 28 33 91 181 194 193 193 195 202 213 220 219 219 224 231 239 249 256 259 258 257 252 246
106 107 108 104 99 99 98 96 94 89 81 74 70 68 68 69 71 73 72 72 77 82 85 84 81 79 78 75 73 71 67 65 62 58 54 52 49 48 52 58 60 61 62 59 50 66 153 186 202 209 212 212 212 223 237 247 256 262 264 266 265 255 240
101 104 104 102 102 103 103 102 102 98 86 72 67 68 67 63 66 70 70 68 69 71 76 83 85 84 83 81 78 77 76 76 74 73 71 68 66 67 68 68 69 66 61 58 58 58 61 65 75 127 157 166 203 254 270 274 274 272 271 274 278 276 264
103 113 111 109 110 107 103 98 97 97 90 75 68 68 67 62 61 61 61 60 61 62 63 67 72 78 81 81 81 82 83 83 79 77 78 80 78 79 80 78 76 77 75 72 71 69 67 68 68 64 60 53 45 19 339 319 304 299 301 312 332 340 342
102 110 109 109 109 105 100 96 94 93 88 82 78 72 67 66 66 65 65 64 63 61 59 57 57 59 63 68 73 76 77 76 73 69 70 73 74 73 76 78 77 76 78 80 80 75 67 61 59 59 59 51 43 43 38 19 11 16 20 22 27 29 33
108 109 108 109 109 107 103 100 98 94 88 84 85 82 77 75 74 73 72 67 59 53 49 47 47 46 46 47 52 57 61 63 66 65 63 64 67 70 71 74 73 71 70 70 72 71 66 58 50 49 51 48 45 46 42 31 36 47 49 49 53 56 58
123 120 115 112 111 110 108 103 98 96 91 87 85 84 82 80 75 71 65 59 57 56 52 50 52 49 46 45 47 48 49 49 52 57 59 59 62 65 66 66 65 63 64 64 59 57 57 53 46 45 45 45 45 42 34 34 44 51 56 69 80 83 79
125 121 117 114 111 108 108 105 101 97 93 88 85 82 79 77 76 74 67 61 64 71 72 72 72 67 64 68 68 62 54 46 46 51 55 57 58 59 59 60 60 58 59 62 61 57 55 52 49 50 49 48 47 42 37 41 48 54 67 82 92 96 93
131 127 120 115 112 110 108 105 102 98 95 92 90 85 80 75 70 67 67 67 71 73 68 62 59 60 64 73 77 69 59 50 48 52 57 58 58 58 57 55 57 57 56 58 58 56 55 55 51 50 52 52 53 54 54 57 61 66 75 80 85 97 102
138 134 127 121 116 114 111 108 105 101 97 93 88 83 79 74 67 61 58 59 70 83 81 70 58 55 55 57 60 59 54 48 44 44 48 47 46 50 52 48 50 53 53 52 54 53 51 54 56 56 57 56 57 59 60 62 65 69 73 78 86 100 110